Tracking 28052 objects as of 25-Sep-2023
HD Live streaming from Space Station
objects crossing your sky now

COSMOS 1249 COOLANT

Track COSMOS 1249 COOLANT now!
10-day predictions


NORAD ID: 27570
Int'l Code: 1981-021S
Perigee: 885.9 km
Apogee: 973.5 km
Inclination: 65.0 °
Period: 103.5 minutes
Semi major axis: 7300 km
RCS: 0.0052 m2 (small)
Launch date: March 5, 1981
Source: Commonwealth of Independent States (former USSR) (CIS)
Launch site: TYURATAM MISSILE AND SPACE COMPLEX (TTMTR)

Note: This is SATELLITE DEBRIS
Your satellite tracking list
Your tracking list is empty




NASA's NSSDC Master Catalog

Two Line Element Set (TLE):
1 27570U 81021S   23264.76238243  .00000320  00000-0  31846-3 0  9995
2 27570  64.9621  31.8789 0059993 229.0328 130.5537 13.91743157509041
Source of the keplerian elements: AFSPC